Regional Weather Roundup
Issued by NWS

Home | Current Version | Previous Version | Text Only | Print | Product List | Glossary On
Versions: 1 2 3 4 5 6 7 8 9 10 11 12 13 14 15 16 17 18 19 20 21 22 23 24 25 26 27
000
ASUS44 KLIX 260213
RWRLA
LOUISIANA WEATHER ROUNDUP
NATIONAL WEATHER SERVICE NEW ORLEANS LA
900 PM CDT SAT MAR 25 2017

NOTE: "FAIR" INDICATES FEW OR NO CLOUDS BELOW 12,000 FEET WITH NO
      SIGNIFICANT WEATHER AND/OR OBSTRUCTIONS TO VISIBILITY.
      SKY/WX - SKY CONDITION AND SIGNIFICANT WEATHER.
      TMP - AIR TEMPERATURE.    DP   - DEWPOINT TEMPERATURE.
      RH  - RELATIVE HUMIDITY.  PRES - PRESSURE.
      HX  - HEAT INDEX.         WCI  - WIND CHILL INDEX.

*  THESE STATIONS ARE NOT NWS OR FAA STATIONS AND ARE NOT UNDER
   NWS QUALITY CONTROL.

LAZ040-048-061>063-065-066-069-260300-
SOUTHEAST LOUISIANA

CITY           SKY/WX    TMP DP  RH WIND       PRES   REMARKS
N.O. INTL ARPT PTCLDY    65  63  93 SE7       30.00S
N.O. LAKEFRONT CLEAR     65  61  87 S13       30.01S
N.O. DOWNTOWN*   N/A     66  61  84 S9        30.02R
RESERVE*       FAIR      65  63  91 S6        30.00S
SLIDELL        CLEAR     63  61  93 S3        30.00R
BATON ROUGE    CLEAR     68  62  81 S8        29.97S
BOOTHVILLE     CLOUDY    64  62  93 SE5       30.04R
BELLE CHASSE   CLEAR    N/A N/A N/A S5        30.01S
BOGALUSA*      NOT AVBL
GALLIANO*      CLEAR     66  62  86 S5        30.01S
NEW ROADS*     FAIR      68  59  73 S8        29.97R
GONZALES*      FAIR      65  62  88 S6        29.98S
HAMMOND*       CLEAR     63  59  88 S5        29.99S
HOUMA*         CLEAR     62  62  98 CALM      30.01S
PORT FOURCHON* CLEAR     70  63  78 SE10      30.02S

$$

LAZ041-044-053-054-260300-
SOUTHWEST LOUISIANA

CITY           SKY/WX    TMP DP  RH WIND       PRES   REMARKS
LAKE CHARLES   CLOUDY    71  68  90 S6        29.95R
LAFAYETTE      MOCLDY    72  63  73 S9        29.97R
PATTERSON      CLEAR     65  63  93 SE8       30.00S
SALT POINT       N/A     66  63  90 SE5       29.98S
NEW IBERIA     CLEAR     67  61  81 S7        29.98R
CHENAULT AIRPK MOCLDY    70  68  94 S6        29.95R

$$

LAZ027-028-260300-
CENTRAL LOUISIANA

CITY           SKY/WX    TMP DP  RH WIND       PRES   REMARKS
FORT POLK      CLEAR     69  52  55 SW3       29.93R
ALEXANDRIA INT CLEAR     63  55  75 CALM      29.92R
ALEXANDRIA     CLEAR     63  60  90 CALM      29.94R

$$

LAZ001-002-260300-
NORTHWEST LOUISIANA

CITY           SKY/WX    TMP DP  RH WIND       PRES   REMARKS
SHREVEPORT     CLEAR     66  49  54 W6        29.92R
BARKSDALE AFB  CLEAR     65  49  55 CALM      29.92R
DTN SHREVEPORT CLEAR     68  50  52 W3        29.93R

$$

LAZ014-016-260300-
NORTHEAST LOUISIANA

CITY           SKY/WX    TMP DP  RH WIND       PRES   REMARKS
MONROE         CLEAR     63  55  75 CALM      29.93R
TALLULAH       CLOUDY    68  60  75 CALM      29.93R

$$





USA.gov is the U.S. government's official web portal to all federal, state and local government web resources and services.